User: anonymous   Login
Location: Unspecified
(0.0000°N, 0.0000°E)
Time: 03:49:55
(UTC+00:00)
Language:

ODIN - Orbit

View from above orbital plane
View from above orbital plane
View from above satellite
View from above satellite

Ground track
Ground track

The orbit data is extracted from the following two-line orbital elements,

1 26702U 01007A   18292.58222282 +.00000082 +00000-0 +94950-5 0  9990
2 26702 097.5885 308.7294 0011265 173.3233 186.8147 15.07651503964772
Epoch (UTC): 19 October 2018 13:58:24
Eccentricity: 0.0011265
inclination: 97.5885°
perigee height: 535 km
apogee height: 551 km
right ascension of ascending node: 308.7294°
argument of perigee: 173.3233°
revolutions per day: 15.07651503
mean anomaly at epoch: 186.8147°
orbit number at epoch: 96477

The dashed part of the orbit path shows where the satellite is in the earth's shadow,  

DLR